Year,Month,Day,Hour,Minute,Value (Times are PST for temperature in C)
2013,11,19,00,00,4.60
2013,11,19,00,01,4.60
2013,11,19,00,02,4.60
2013,11,19,00,03,4.60
2013,11,19,00,04,4.60
2013,11,19,00,05,4.60
2013,11,19,00,06,4.60
2013,11,19,00,07,4.60
2013,11,19,00,08,4.60
2013,11,19,00,09,4.60
2013,11,19,00,10,4.60
2013,11,19,00,11,4.60
2013,11,19,00,12,4.60
2013,11,19,00,13,4.60
2013,11,19,00,14,4.60
2013,11,19,00,15,4.60
2013,11,19,00,16,4.60
2013,11,19,00,17,4.60
2013,11,19,00,18,4.60
2013,11,19,00,19,4.60
2013,11,19,00,20,4.60
2013,11,19,00,21,4.60
2013,11,19,00,22,4.60
2013,11,19,00,23,4.60
2013,11,19,00,24,4.60
2013,11,19,00,25,4.60
2013,11,19,00,26,4.60
2013,11,19,00,27,4.60
2013,11,19,00,28,4.60
2013,11,19,00,29,4.60
2013,11,19,00,30,4.60
2013,11,19,00,31,4.60
2013,11,19,00,32,4.60
2013,11,19,00,33,4.60
2013,11,19,00,34,4.60
2013,11,19,00,35,4.60
2013,11,19,00,36,4.60
2013,11,19,00,37,4.60
2013,11,19,00,38,4.60
2013,11,19,00,39,4.60
2013,11,19,00,40,4.60
2013,11,19,00,41,4.60
2013,11,19,00,42,4.60
2013,11,19,00,43,4.60
2013,11,19,00,44,4.60
2013,11,19,00,45,4.60
2013,11,19,00,46,4.60
2013,11,19,00,47,4.60
2013,11,19,00,48,4.60
2013,11,19,00,49,4.70
2013,11,19,00,50,4.70
2013,11,19,00,51,4.70
2013,11,19,00,52,4.70
2013,11,19,00,53,4.70
2013,11,19,00,54,4.70
2013,11,19,00,55,4.70
2013,11,19,00,56,4.70
2013,11,19,00,57,4.70
2013,11,19,00,58,4.70
2013,11,19,00,59,4.70
2013,11,19,01,00,4.70
2013,11,19,01,01,4.70
2013,11,19,01,02,4.70
2013,11,19,01,03,4.70
2013,11,19,01,04,4.70
2013,11,19,01,05,4.70
2013,11,19,01,06,4.70
2013,11,19,01,07,4.70
2013,11,19,01,08,4.70
2013,11,19,01,09,4.70
2013,11,19,01,10,4.70
2013,11,19,01,11,4.70
2013,11,19,01,12,4.70
2013,11,19,01,13,4.70
2013,11,19,01,14,4.70
2013,11,19,01,15,4.60
2013,11,19,01,16,4.60
2013,11,19,01,17,4.60
2013,11,19,01,18,4.60
2013,11,19,01,19,4.60
2013,11,19,01,20,4.60
2013,11,19,01,21,4.60
2013,11,19,01,22,4.50
2013,11,19,01,23,4.50
2013,11,19,01,24,4.50
2013,11,19,01,25,4.50
2013,11,19,01,26,4.40
2013,11,19,01,27,4.40
2013,11,19,01,28,4.40
2013,11,19,01,29,4.40
2013,11,19,01,30,4.40
2013,11,19,01,31,4.40
2013,11,19,01,32,4.30
2013,11,19,01,33,4.30
2013,11,19,01,34,4.30
2013,11,19,01,35,4.30
2013,11,19,01,36,4.30
2013,11,19,01,37,4.20
2013,11,19,01,38,4.20
2013,11,19,01,39,4.20
2013,11,19,01,40,4.20
2013,11,19,01,41,4.20
2013,11,19,01,42,4.20
2013,11,19,01,43,4.20
2013,11,19,01,44,4.20
2013,11,19,01,45,4.10
2013,11,19,01,46,4.10
2013,11,19,01,47,4.10
2013,11,19,01,48,4.10
2013,11,19,01,49,4.10
2013,11,19,01,50,4.10
2013,11,19,01,51,4.10
2013,11,19,01,52,4.10
2013,11,19,01,53,4.10
2013,11,19,01,54,4.10
2013,11,19,01,55,4.00
2013,11,19,01,56,4.00
2013,11,19,01,57,4.00
2013,11,19,01,58,4.00
2013,11,19,01,59,4.00
2013,11,19,02,00,4.00
2013,11,19,02,01,4.00
2013,11,19,02,02,4.00
2013,11,19,02,03,4.00
2013,11,19,02,04,4.00
2013,11,19,02,05,4.00
2013,11,19,02,06,4.10
2013,11,19,02,07,4.10
2013,11,19,02,08,4.10
2013,11,19,02,09,4.10
2013,11,19,02,10,4.10
2013,11,19,02,11,4.10
2013,11,19,02,12,4.10
2013,11,19,02,13,4.10
2013,11,19,02,14,4.10
2013,11,19,02,15,4.10
2013,11,19,02,16,4.10
2013,11,19,02,17,4.10
2013,11,19,02,18,4.10
2013,11,19,02,19,4.10
2013,11,19,02,20,4.10
2013,11,19,02,21,4.00
2013,11,19,02,22,4.00
2013,11,19,02,23,4.00
2013,11,19,02,24,4.00
2013,11,19,02,25,4.00
2013,11,19,02,26,4.00
2013,11,19,02,27,4.00
2013,11,19,02,28,3.90
2013,11,19,02,29,3.90
2013,11,19,02,30,3.90
2013,11,19,02,31,3.90
2013,11,19,02,32,3.90
2013,11,19,02,33,3.90
2013,11,19,02,34,3.80
2013,11,19,02,35,3.80
2013,11,19,02,36,3.80
2013,11,19,02,37,3.80
2013,11,19,02,38,3.80
2013,11,19,02,39,3.80
2013,11,19,02,40,3.80
2013,11,19,02,41,3.80
2013,11,19,02,42,3.80
2013,11,19,02,43,3.80
2013,11,19,02,44,3.80
2013,11,19,02,45,3.80
2013,11,19,02,46,3.80
2013,11,19,02,47,3.80
2013,11,19,02,48,3.80
2013,11,19,02,49,3.80
2013,11,19,02,50,3.80
2013,11,19,02,51,3.80
2013,11,19,02,52,3.80
2013,11,19,02,53,3.80
2013,11,19,02,54,3.80
2013,11,19,02,55,3.80
2013,11,19,02,56,3.80
2013,11,19,02,57,3.80
2013,11,19,02,58,3.80
2013,11,19,02,59,3.80
2013,11,19,03,00,3.80
2013,11,19,03,01,3.80
2013,11,19,03,02,3.80
2013,11,19,03,03,3.80
2013,11,19,03,04,3.80
2013,11,19,03,05,3.80
2013,11,19,03,06,3.80
2013,11,19,03,07,3.80
2013,11,19,03,08,3.90
2013,11,19,03,09,3.90
2013,11,19,03,10,3.90
2013,11,19,03,11,3.90
2013,11,19,03,12,3.90
2013,11,19,03,13,4.00
2013,11,19,03,14,4.00
2013,11,19,03,15,4.00
2013,11,19,03,16,4.00
2013,11,19,03,17,4.00
2013,11,19,03,18,4.00
2013,11,19,03,19,3.90
2013,11,19,03,20,3.90
2013,11,19,03,21,3.90
2013,11,19,03,22,3.90
2013,11,19,03,23,3.90
2013,11,19,03,24,3.90
2013,11,19,03,25,3.90
2013,11,19,03,26,3.90
2013,11,19,03,27,3.90
2013,11,19,03,28,3.90
2013,11,19,03,29,3.90
2013,11,19,03,30,3.90
2013,11,19,03,31,3.90
2013,11,19,03,32,3.90
2013,11,19,03,33,3.90
2013,11,19,03,34,3.90
2013,11,19,03,35,3.90
2013,11,19,03,36,3.90
2013,11,19,03,37,3.80
2013,11,19,03,38,3.80
2013,11,19,03,39,3.80
2013,11,19,03,40,3.80
2013,11,19,03,41,3.80
2013,11,19,03,42,3.80
2013,11,19,03,43,3.80
2013,11,19,03,44,3.80
2013,11,19,03,45,3.80
2013,11,19,03,46,3.80
2013,11,19,03,47,3.80
2013,11,19,03,48,3.80
2013,11,19,03,49,3.80
2013,11,19,03,50,3.80
2013,11,19,03,51,3.80
2013,11,19,03,52,3.80
2013,11,19,03,53,3.80
2013,11,19,03,54,3.80
2013,11,19,03,55,3.80
2013,11,19,03,56,3.80
2013,11,19,03,57,3.80
2013,11,19,03,58,3.80
2013,11,19,03,59,3.70
2013,11,19,04,00,3.70
2013,11,19,04,01,3.70
2013,11,19,04,02,3.70
2013,11,19,04,03,3.70
2013,11,19,04,04,3.70
2013,11,19,04,05,3.70
2013,11,19,04,06,3.70
2013,11,19,04,07,3.70
2013,11,19,04,08,3.70
2013,11,19,04,09,3.70
2013,11,19,04,10,3.70
2013,11,19,04,11,3.70
2013,11,19,04,12,3.70
2013,11,19,04,13,3.70
2013,11,19,04,14,3.70
2013,11,19,04,15,3.70
2013,11,19,04,16,3.70
2013,11,19,04,17,3.70
2013,11,19,04,18,3.70
2013,11,19,04,19,3.70
2013,11,19,04,20,3.70
2013,11,19,04,21,3.70
2013,11,19,04,22,3.70
2013,11,19,04,23,3.70
2013,11,19,04,24,3.70
2013,11,19,04,25,3.70
2013,11,19,04,26,3.70
2013,11,19,04,27,3.70
2013,11,19,04,28,3.70
2013,11,19,04,29,3.70
2013,11,19,04,30,3.70
2013,11,19,04,31,3.70
2013,11,19,04,32,3.70
2013,11,19,04,33,3.70
2013,11,19,04,34,3.70
2013,11,19,04,35,3.70
2013,11,19,04,36,3.70
2013,11,19,04,37,3.60
2013,11,19,04,38,3.60
2013,11,19,04,39,3.60
2013,11,19,04,40,3.60
2013,11,19,04,41,3.60
2013,11,19,04,42,3.60
2013,11,19,04,43,3.70
2013,11,19,04,44,3.70
2013,11,19,04,45,3.70
2013,11,19,04,46,3.70
2013,11,19,04,47,3.70
2013,11,19,04,48,3.70
2013,11,19,04,49,3.70
2013,11,19,04,50,3.70
2013,11,19,04,51,3.60
2013,11,19,04,52,3.60
2013,11,19,04,53,3.60
2013,11,19,04,54,3.60
2013,11,19,04,55,3.60
2013,11,19,04,56,3.60
2013,11,19,04,57,3.60
2013,11,19,04,58,3.50
2013,11,19,04,59,3.50
2013,11,19,05,00,3.50
2013,11,19,05,01,3.50
2013,11,19,05,02,3.50
2013,11,19,05,03,3.50
2013,11,19,05,04,3.40
2013,11,19,05,05,3.40
2013,11,19,05,06,3.40
2013,11,19,05,07,3.40
2013,11,19,05,08,3.40
2013,11,19,05,09,3.30
2013,11,19,05,10,3.30
2013,11,19,05,11,3.30
2013,11,19,05,12,3.30
2013,11,19,05,13,3.20
2013,11,19,05,14,3.20
2013,11,19,05,15,3.20
2013,11,19,05,16,3.20
2013,11,19,05,17,3.10
2013,11,19,05,18,3.10
2013,11,19,05,19,3.10
2013,11,19,05,20,3.10
2013,11,19,05,21,3.00
2013,11,19,05,22,3.00
2013,11,19,05,23,3.00
2013,11,19,05,24,2.90
2013,11,19,05,25,2.90
2013,11,19,05,26,2.90
2013,11,19,05,27,2.90
2013,11,19,05,28,2.90
2013,11,19,05,29,2.90
2013,11,19,05,30,2.90
2013,11,19,05,31,2.90
2013,11,19,05,32,2.90
2013,11,19,05,33,2.90
2013,11,19,05,34,2.90
2013,11,19,05,35,2.90
2013,11,19,05,36,2.90
2013,11,19,05,37,2.90
2013,11,19,05,38,2.90
2013,11,19,05,39,2.90
2013,11,19,05,40,2.90
2013,11,19,05,41,2.90
2013,11,19,05,42,2.90
2013,11,19,05,43,2.90
2013,11,19,05,44,3.00
2013,11,19,05,45,2.90
2013,11,19,05,46,2.90
2013,11,19,05,47,2.90
2013,11,19,05,48,2.90
2013,11,19,05,49,2.90
2013,11,19,05,50,2.90
2013,11,19,05,51,2.90
2013,11,19,05,52,2.90
2013,11,19,05,53,2.80
2013,11,19,05,54,2.80
2013,11,19,05,55,2.80
2013,11,19,05,56,2.80
2013,11,19,05,57,2.80
2013,11,19,05,58,2.80
2013,11,19,05,59,2.80
2013,11,19,06,00,2.70
2013,11,19,06,01,2.70
2013,11,19,06,02,2.70
2013,11,19,06,03,2.70
2013,11,19,06,04,2.70
2013,11,19,06,05,2.60
2013,11,19,06,06,2.60
2013,11,19,06,07,2.60
2013,11,19,06,08,2.50
2013,11,19,06,09,2.50
2013,11,19,06,10,2.50
2013,11,19,06,11,2.40
2013,11,19,06,12,2.40
2013,11,19,06,13,2.40
2013,11,19,06,14,2.40
2013,11,19,06,15,2.30
2013,11,19,06,16,2.30
2013,11,19,06,17,2.30
2013,11,19,06,18,2.30
2013,11,19,06,19,2.30
2013,11,19,06,20,2.20
2013,11,19,06,21,2.20
2013,11,19,06,22,2.20
2013,11,19,06,23,2.20
2013,11,19,06,24,2.20
2013,11,19,06,25,2.10
2013,11,19,06,26,2.10
2013,11,19,06,27,2.10
2013,11,19,06,28,2.00
2013,11,19,06,29,2.00
2013,11,19,06,30,1.90
2013,11,19,06,31,1.90
2013,11,19,06,32,1.90
2013,11,19,06,33,1.80
2013,11,19,06,34,1.80
2013,11,19,06,35,1.80
2013,11,19,06,36,1.80
2013,11,19,06,37,1.80
2013,11,19,06,38,1.80
2013,11,19,06,39,1.80
2013,11,19,06,40,1.80
2013,11,19,06,41,1.80
2013,11,19,06,42,1.80
2013,11,19,06,43,1.80
2013,11,19,06,44,1.80
2013,11,19,06,45,1.80
2013,11,19,06,46,1.80
2013,11,19,06,47,1.80
2013,11,19,06,48,1.80
2013,11,19,06,49,1.70
2013,11,19,06,50,1.70
2013,11,19,06,51,1.70
2013,11,19,06,52,1.70
2013,11,19,06,53,1.70
2013,11,19,06,54,1.70
2013,11,19,06,55,1.70
2013,11,19,06,56,1.80
2013,11,19,06,57,1.80
2013,11,19,06,58,1.80
2013,11,19,06,59,1.80
2013,11,19,07,00,1.70
2013,11,19,07,01,1.70
2013,11,19,07,02,1.70
2013,11,19,07,03,1.70
2013,11,19,07,04,1.70
2013,11,19,07,05,1.70
2013,11,19,07,06,1.70
2013,11,19,07,07,1.70
2013,11,19,07,08,1.70
2013,11,19,07,09,1.70
2013,11,19,07,10,1.70
2013,11,19,07,11,1.70
2013,11,19,07,12,1.70
2013,11,19,07,13,1.70
2013,11,19,07,14,1.70
2013,11,19,07,15,1.70
2013,11,19,07,16,1.70
2013,11,19,07,17,1.70
2013,11,19,07,18,1.70
2013,11,19,07,19,1.70
2013,11,19,07,20,1.70
2013,11,19,07,21,1.70
2013,11,19,07,22,1.70
2013,11,19,07,23,1.70
2013,11,19,07,24,1.70
2013,11,19,07,25,1.70
2013,11,19,07,26,1.70
2013,11,19,07,27,1.70
2013,11,19,07,28,1.70
2013,11,19,07,29,1.70
2013,11,19,07,30,1.70
2013,11,19,07,31,1.60
2013,11,19,07,32,1.60
2013,11,19,07,33,1.60
2013,11,19,07,34,1.60
2013,11,19,07,35,1.60
2013,11,19,07,36,1.60
2013,11,19,07,37,1.60
2013,11,19,07,38,1.60
2013,11,19,07,39,1.60
2013,11,19,07,40,1.60
2013,11,19,07,41,1.60
2013,11,19,07,42,1.60
2013,11,19,07,43,1.60
2013,11,19,07,44,1.70
2013,11,19,07,45,1.70
2013,11,19,07,46,1.70
2013,11,19,07,47,1.70
2013,11,19,07,48,1.70
2013,11,19,07,49,1.70
2013,11,19,07,50,1.80
2013,11,19,07,51,1.80
2013,11,19,07,52,1.90
2013,11,19,07,53,1.90
2013,11,19,07,54,1.90
2013,11,19,07,55,1.90
2013,11,19,07,56,1.90
2013,11,19,07,57,2.00
2013,11,19,07,58,2.00
2013,11,19,07,59,2.00
2013,11,19,08,00,2.10
2013,11,19,08,01,2.10
2013,11,19,08,02,2.10
2013,11,19,08,03,2.10
2013,11,19,08,04,2.10
2013,11,19,08,05,2.20
2013,11,19,08,06,2.20
2013,11,19,08,07,2.20
2013,11,19,08,08,2.20
2013,11,19,08,09,2.30
2013,11,19,08,10,2.30
2013,11,19,08,11,2.30
2013,11,19,08,12,2.30
2013,11,19,08,13,2.30
2013,11,19,08,14,2.30
2013,11,19,08,15,2.40
2013,11,19,08,16,2.40
2013,11,19,08,17,2.50
2013,11,19,08,18,2.60
2013,11,19,08,19,2.60
2013,11,19,08,20,2.70
2013,11,19,08,21,2.70
2013,11,19,08,22,2.70
2013,11,19,08,23,2.80
2013,11,19,08,24,2.80
2013,11,19,08,25,2.80
2013,11,19,08,26,2.90
2013,11,19,08,27,2.90
2013,11,19,08,28,2.90
2013,11,19,08,29,2.90
2013,11,19,08,30,3.00
2013,11,19,08,31,3.10
2013,11,19,08,32,3.10
2013,11,19,08,33,3.20
2013,11,19,08,34,3.30
2013,11,19,08,35,3.30
2013,11,19,08,36,3.40
2013,11,19,08,37,3.40
2013,11,19,08,38,3.40
2013,11,19,08,39,3.50
2013,11,19,08,40,3.50
2013,11,19,08,41,3.50
2013,11,19,08,42,3.60
2013,11,19,08,43,3.60
2013,11,19,08,44,3.60
2013,11,19,08,45,3.60
2013,11,19,08,46,3.60
2013,11,19,08,47,3.60
2013,11,19,08,48,3.60
2013,11,19,08,49,3.60
2013,11,19,08,50,3.60
2013,11,19,08,51,3.60
2013,11,19,08,52,3.60
2013,11,19,08,53,3.60
2013,11,19,08,54,3.60
2013,11,19,08,55,3.60
2013,11,19,08,56,3.60
2013,11,19,08,57,3.60
2013,11,19,08,58,3.60
2013,11,19,08,59,3.60
2013,11,19,09,00,3.60
2013,11,19,09,01,3.60
2013,11,19,09,02,3.60
2013,11,19,09,03,3.60
2013,11,19,09,04,3.60
2013,11,19,09,05,3.60
2013,11,19,09,06,3.70
2013,11,19,09,07,3.70
2013,11,19,09,08,3.70
2013,11,19,09,09,3.70
2013,11,19,09,10,3.70
2013,11,19,09,11,3.80
2013,11,19,09,12,3.90
2013,11,19,09,13,3.90
2013,11,19,09,14,3.90
2013,11,19,09,15,3.90
2013,11,19,09,16,3.90
2013,11,19,09,17,3.90
2013,11,19,09,18,4.00
2013,11,19,09,19,4.00
2013,11,19,09,20,3.90
2013,11,19,09,21,3.90
2013,11,19,09,22,3.90
2013,11,19,09,23,3.90
2013,11,19,09,24,3.90
2013,11,19,09,25,3.90
2013,11,19,09,26,4.00
2013,11,19,09,27,4.00
2013,11,19,09,28,4.00
2013,11,19,09,29,4.00
2013,11,19,09,30,4.00
2013,11,19,09,31,4.00
2013,11,19,09,32,4.00
2013,11,19,09,33,4.00
2013,11,19,09,34,4.10
2013,11,19,09,35,4.10
2013,11,19,09,36,4.10
2013,11,19,09,37,4.20
2013,11,19,09,38,4.20
2013,11,19,09,39,4.20
2013,11,19,09,40,4.20
2013,11,19,09,41,4.20
2013,11,19,09,42,4.20
2013,11,19,09,43,4.20
2013,11,19,09,44,4.30
2013,11,19,09,45,4.30
2013,11,19,09,46,4.30
2013,11,19,09,47,4.30
2013,11,19,09,48,4.30
2013,11,19,09,49,4.30
2013,11,19,09,50,4.30
2013,11,19,09,51,4.30
2013,11,19,09,52,4.30
2013,11,19,09,53,4.30
2013,11,19,09,54,4.30
2013,11,19,09,55,4.30
2013,11,19,09,56,4.40
2013,11,19,09,57,4.40
2013,11,19,09,58,4.40
2013,11,19,09,59,4.40
2013,11,19,10,00,4.40
2013,11,19,10,01,4.40
2013,11,19,10,02,4.40
2013,11,19,10,03,4.40
2013,11,19,10,04,4.40
2013,11,19,10,05,4.40
2013,11,19,10,06,4.50
2013,11,19,10,07,4.50
2013,11,19,10,08,4.60
2013,11,19,10,09,4.60
2013,11,19,10,10,4.60
2013,11,19,10,11,4.60
2013,11,19,10,12,4.60
2013,11,19,10,13,4.60
2013,11,19,10,14,4.60
2013,11,19,10,15,4.70
2013,11,19,10,16,4.70
2013,11,19,10,17,4.70
2013,11,19,10,18,4.70
2013,11,19,10,19,4.70
2013,11,19,10,20,4.70
2013,11,19,10,21,4.70
2013,11,19,10,22,4.70
2013,11,19,10,23,4.70
2013,11,19,10,24,4.70
2013,11,19,10,25,4.70
2013,11,19,10,26,4.80
2013,11,19,10,27,4.80
2013,11,19,10,28,4.80
2013,11,19,10,29,4.80
2013,11,19,10,30,4.80
2013,11,19,10,31,4.80
2013,11,19,10,32,4.80
2013,11,19,10,33,4.80
2013,11,19,10,34,4.80
2013,11,19,10,35,4.80
2013,11,19,10,36,4.80
2013,11,19,10,37,4.80
2013,11,19,10,38,4.80
2013,11,19,10,39,4.80
2013,11,19,10,40,4.90
2013,11,19,10,41,4.90
2013,11,19,10,42,4.90
2013,11,19,10,43,4.90
2013,11,19,10,44,4.90
2013,11,19,10,45,4.90
2013,11,19,10,46,4.90
2013,11,19,10,47,5.00
2013,11,19,10,48,5.00
2013,11,19,10,49,5.00
2013,11,19,10,50,5.00
2013,11,19,10,51,5.00
2013,11,19,10,52,5.00
2013,11,19,10,53,5.00
2013,11,19,10,54,5.00
2013,11,19,10,55,5.10
2013,11,19,10,56,5.10
2013,11,19,10,57,5.10
2013,11,19,10,58,5.00
2013,11,19,10,59,5.00
2013,11,19,11,00,5.00
2013,11,19,11,01,5.00
2013,11,19,11,02,5.00
2013,11,19,11,03,5.10
2013,11,19,11,04,5.10
2013,11,19,11,05,5.10
2013,11,19,11,06,5.10
2013,11,19,11,07,5.10
2013,11,19,11,08,5.10
2013,11,19,11,09,5.20
2013,11,19,11,10,5.10
2013,11,19,11,11,5.20
2013,11,19,11,12,5.20
2013,11,19,11,13,5.20
2013,11,19,11,14,5.20
2013,11,19,11,15,5.20
2013,11,19,11,16,5.20
2013,11,19,11,17,5.20
2013,11,19,11,18,5.20
2013,11,19,11,19,5.20
2013,11,19,11,20,5.20
2013,11,19,11,21,5.20
2013,11,19,11,22,5.30
2013,11,19,11,23,5.30
2013,11,19,11,24,5.30
2013,11,19,11,25,5.30
2013,11,19,11,26,5.30
2013,11,19,11,27,5.40
2013,11,19,11,28,5.40
2013,11,19,11,29,5.40
2013,11,19,11,30,5.30
2013,11,19,11,31,5.30
2013,11,19,11,32,5.40
2013,11,19,11,33,5.30
2013,11,19,11,34,5.30
2013,11,19,11,35,5.40
2013,11,19,11,36,5.40
2013,11,19,11,37,5.40
2013,11,19,11,38,5.40
2013,11,19,11,39,5.40
2013,11,19,11,40,5.40
2013,11,19,11,41,5.30
2013,11,19,11,42,5.30
2013,11,19,11,43,5.30
2013,11,19,11,44,5.30
2013,11,19,11,45,5.30
2013,11,19,11,46,5.30
2013,11,19,11,47,5.30
2013,11,19,11,48,5.30
2013,11,19,11,49,5.30
2013,11,19,11,50,5.30
2013,11,19,11,51,5.30
2013,11,19,11,52,5.30
2013,11,19,11,53,5.30
2013,11,19,11,54,5.30
2013,11,19,11,55,5.30
2013,11,19,11,56,5.30
2013,11,19,11,57,5.30
2013,11,19,11,58,5.30
2013,11,19,11,59,5.30
2013,11,19,12,00,5.30
2013,11,19,12,01,5.30
2013,11,19,12,02,5.30
2013,11,19,12,03,5.30
2013,11,19,12,04,5.30
2013,11,19,12,05,5.30
2013,11,19,12,06,5.30
2013,11,19,12,07,5.30
2013,11,19,12,08,5.30
2013,11,19,12,09,5.30
2013,11,19,12,10,5.30
2013,11,19,12,11,5.30
2013,11,19,12,12,5.30
2013,11,19,12,13,5.40
2013,11,19,12,14,5.40
2013,11,19,12,15,5.40
2013,11,19,12,16,5.40
2013,11,19,12,17,5.40
2013,11,19,12,18,5.40
2013,11,19,12,19,5.30
2013,11,19,12,20,5.30
2013,11,19,12,21,5.30
2013,11,19,12,22,5.30
2013,11,19,12,23,5.30
2013,11,19,12,24,5.30
2013,11,19,12,25,5.30
2013,11,19,12,26,5.30
2013,11,19,12,27,5.30
2013,11,19,12,28,5.30
2013,11,19,12,29,5.30
2013,11,19,12,30,5.30
2013,11,19,12,31,5.30
2013,11,19,12,32,5.30
2013,11,19,12,33,5.30
2013,11,19,12,34,5.30
2013,11,19,12,35,5.30
2013,11,19,12,36,5.30
2013,11,19,12,37,5.30
2013,11,19,12,38,5.30
2013,11,19,12,39,5.30
2013,11,19,12,40,5.30
2013,11,19,12,41,5.30
2013,11,19,12,42,5.30
2013,11,19,12,43,5.30
2013,11,19,12,44,5.20
2013,11,19,12,45,5.20
2013,11,19,12,46,5.20
2013,11,19,12,47,5.30
2013,11,19,12,48,5.30
2013,11,19,12,49,5.30
2013,11,19,12,50,5.30
2013,11,19,12,51,5.30
2013,11,19,12,52,5.30
2013,11,19,12,53,5.30
2013,11,19,12,54,5.30
2013,11,19,12,55,5.20
2013,11,19,12,56,5.20
2013,11,19,12,57,5.20
2013,11,19,12,58,5.20
2013,11,19,12,59,5.20
2013,11,19,13,00,5.20
2013,11,19,13,01,5.20
2013,11,19,13,02,5.20
2013,11,19,13,03,5.20
2013,11,19,13,04,5.20
2013,11,19,13,05,5.20
2013,11,19,13,06,5.20
2013,11,19,13,07,5.20
2013,11,19,13,08,5.20
2013,11,19,13,09,5.20
2013,11,19,13,10,5.20
2013,11,19,13,11,5.20
2013,11,19,13,12,5.20
2013,11,19,13,13,5.20
2013,11,19,13,14,5.20
2013,11,19,13,15,5.20
2013,11,19,13,16,5.20
2013,11,19,13,17,5.30
2013,11,19,13,18,5.30
2013,11,19,13,19,5.30
2013,11,19,13,20,5.30
2013,11,19,14,06,1.50
2013,11,19,14,07,1.50
2013,11,19,14,08,1.40
2013,11,19,14,09,1.40
2013,11,19,14,10,1.40
2013,11,19,14,11,1.40
2013,11,19,14,12,1.40
2013,11,19,14,13,1.40
2013,11,19,14,14,1.30
2013,11,19,14,15,1.30
2013,11,19,14,16,1.30
2013,11,19,14,17,1.30
2013,11,19,14,18,1.30
2013,11,19,14,19,1.30
2013,11,19,14,20,1.30
2013,11,19,14,21,1.30
2013,11,19,14,22,1.30
2013,11,19,14,23,1.30
2013,11,19,14,24,1.30
2013,11,19,14,25,1.30
2013,11,19,14,26,1.30
2013,11,19,14,27,1.30
2013,11,19,14,28,1.30
2013,11,19,14,29,1.30
2013,11,19,14,30,1.20
2013,11,19,14,31,1.20
2013,11,19,14,32,1.20
2013,11,19,14,33,1.10
2013,11,19,14,34,1.10
2013,11,19,14,35,1.10
2013,11,19,14,36,1.10
2013,11,19,14,37,1.10
2013,11,19,14,38,1.10
2013,11,19,14,39,1.10
2013,11,19,14,40,1.10
2013,11,19,14,41,1.10
2013,11,19,14,42,1.10
2013,11,19,14,43,1.00
2013,11,19,14,44,1.00
2013,11,19,14,45,1.00
2013,11,19,14,46,1.10
2013,11,19,14,47,1.10
2013,11,19,14,48,1.10
2013,11,19,14,49,1.10
2013,11,19,14,50,1.10
2013,11,19,14,51,1.10
2013,11,19,14,52,1.00
2013,11,19,14,53,1.00
2013,11,19,14,54,1.00
2013,11,19,14,55,1.10
2013,11,19,14,56,1.10
2013,11,19,14,57,1.10
2013,11,19,14,58,1.00
2013,11,19,14,59,1.10
2013,11,19,15,00,1.10
2013,11,19,15,01,1.10
2013,11,19,15,02,1.10
2013,11,19,15,03,1.10
2013,11,19,15,04,1.10
2013,11,19,15,05,1.10
2013,11,19,15,06,1.10
2013,11,19,15,07,1.10
2013,11,19,15,08,1.10
2013,11,19,15,09,1.10
2013,11,19,15,10,1.10
2013,11,19,15,11,1.10
2013,11,19,15,12,1.20
2013,11,19,15,13,1.20
2013,11,19,15,14,1.20
2013,11,19,15,15,1.20
2013,11,19,15,16,1.20
2013,11,19,15,17,1.20
2013,11,19,15,18,1.20
2013,11,19,15,19,1.20
2013,11,19,15,20,1.20
2013,11,19,15,21,1.20
2013,11,19,15,22,1.30
2013,11,19,15,23,1.30
2013,11,19,15,24,1.30
2013,11,19,15,25,1.20
2013,11,19,15,26,1.20
2013,11,19,15,27,1.20
2013,11,19,15,28,1.20
2013,11,19,15,29,1.20
2013,11,19,15,30,1.20
2013,11,19,15,31,1.10
2013,11,19,15,32,1.10
2013,11,19,15,33,1.10
2013,11,19,15,34,1.10
2013,11,19,15,35,1.10
2013,11,19,15,36,1.10
2013,11,19,15,37,1.10
2013,11,19,15,38,1.10
2013,11,19,15,39,1.20
2013,11,19,15,40,1.20
2013,11,19,15,41,1.20
2013,11,19,15,42,1.20
2013,11,19,15,43,1.20
2013,11,19,15,44,1.10
2013,11,19,15,45,1.10
2013,11,19,15,46,1.10
2013,11,19,15,47,1.10
2013,11,19,15,48,1.10
2013,11,19,15,49,1.10
2013,11,19,15,50,1.10
2013,11,19,15,51,1.10
2013,11,19,15,52,1.10
2013,11,19,15,53,1.10
2013,11,19,15,54,1.10
2013,11,19,15,55,1.10
2013,11,19,15,56,1.00
2013,11,19,15,57,1.00
2013,11,19,15,58,1.00
2013,11,19,15,59,1.00
2013,11,19,16,00,1.00
2013,11,19,16,01,0.90
2013,11,19,16,02,0.90
2013,11,19,16,03,0.90
2013,11,19,16,04,0.90
2013,11,19,16,05,0.90
2013,11,19,16,06,0.90
2013,11,19,16,07,0.90
2013,11,19,16,08,0.80
2013,11,19,16,09,0.80
2013,11,19,16,10,0.80
2013,11,19,16,11,0.80
2013,11,19,16,12,0.80
2013,11,19,16,13,0.80
2013,11,19,16,14,0.80
2013,11,19,16,15,0.70
2013,11,19,16,16,0.70
2013,11,19,16,17,0.70
2013,11,19,16,18,0.70
2013,11,19,16,19,0.70
2013,11,19,16,20,0.70
2013,11,19,16,21,0.70
2013,11,19,16,22,0.70
2013,11,19,16,23,0.70
2013,11,19,16,24,0.70
2013,11,19,16,25,0.70
2013,11,19,16,26,0.70
2013,11,19,16,27,0.60
2013,11,19,16,28,0.60
2013,11,19,16,29,0.60
2013,11,19,16,30,0.60
2013,11,19,16,31,0.60
2013,11,19,16,32,0.50
2013,11,19,16,33,0.50
2013,11,19,16,34,0.50
2013,11,19,16,35,0.50
2013,11,19,16,36,0.50
2013,11,19,16,37,0.40
2013,11,19,16,38,0.40
2013,11,19,16,39,0.40
2013,11,19,16,40,0.40
2013,11,19,16,41,0.40
2013,11,19,16,42,0.40
2013,11,19,16,43,0.40
2013,11,19,16,44,0.40
2013,11,19,16,45,0.30
2013,11,19,16,46,0.30
2013,11,19,16,47,0.30
2013,11,19,16,48,0.40
2013,11,19,16,49,0.40
2013,11,19,16,50,0.40
2013,11,19,16,51,0.40
2013,11,19,16,52,0.40
2013,11,19,16,53,0.40
2013,11,19,16,54,0.40
2013,11,19,16,55,0.40
2013,11,19,16,56,0.40
2013,11,19,16,57,0.30
2013,11,19,16,58,0.30
2013,11,19,16,59,0.30
2013,11,19,17,00,0.30
2013,11,19,17,01,0.30
2013,11,19,17,02,0.20
2013,11,19,17,03,0.20
2013,11,19,17,04,0.20
2013,11,19,17,05,0.20
2013,11,19,17,06,0.20
2013,11,19,17,07,0.20
2013,11,19,17,08,0.20
2013,11,19,17,09,0.10
2013,11,19,17,10,0.10
2013,11,19,17,11,0.10
2013,11,19,17,12,0.10
2013,11,19,17,13,0.00
2013,11,19,17,14,0.00
2013,11,19,17,15,0.00
2013,11,19,17,16,0.00
2013,11,19,17,17,0.00
2013,11,19,17,18,-0.10
2013,11,19,17,19,-0.10
2013,11,19,17,20,-0.10
2013,11,19,17,21,-0.10
2013,11,19,17,22,-0.10
2013,11,19,17,23,-0.10
2013,11,19,17,24,-0.10
2013,11,19,17,25,-0.10
2013,11,19,17,26,-0.10
2013,11,19,17,27,-0.10
2013,11,19,17,28,-0.10
2013,11,19,17,29,-0.10
2013,11,19,17,30,-0.10
2013,11,19,17,31,-0.10
2013,11,19,17,32,-0.10
2013,11,19,17,33,-0.10
2013,11,19,17,34,-0.10
2013,11,19,17,35,-0.10
2013,11,19,17,36,-0.10
2013,11,19,17,37,-0.10
2013,11,19,17,38,-0.10
2013,11,19,17,39,-0.10
2013,11,19,17,40,-0.10
2013,11,19,17,41,-0.10
2013,11,19,17,42,-0.10
2013,11,19,17,43,-0.10
2013,11,19,17,44,-0.10
2013,11,19,17,45,-0.10
2013,11,19,17,46,-0.10
2013,11,19,17,47,-0.10
2013,11,19,17,48,-0.10
2013,11,19,17,49,-0.10
2013,11,19,17,50,-0.10
2013,11,19,17,51,-0.10
2013,11,19,17,52,-0.10
2013,11,19,17,53,-0.10
2013,11,19,17,54,-0.20
2013,11,19,17,55,-0.20
2013,11,19,17,56,-0.20
2013,11,19,17,57,-0.20
2013,11,19,17,58,-0.20
2013,11,19,17,59,-0.20
2013,11,19,18,00,-0.30
2013,11,19,18,01,-0.30
2013,11,19,18,02,-0.30
2013,11,19,18,03,-0.30
2013,11,19,18,04,-0.30
2013,11,19,18,05,-0.30
2013,11,19,18,06,-0.30
2013,11,19,18,07,-0.30
2013,11,19,18,08,-0.30
2013,11,19,18,09,-0.40
2013,11,19,18,10,-0.40
2013,11,19,18,11,-0.40
2013,11,19,18,12,-0.40
2013,11,19,18,13,-0.40
2013,11,19,18,14,-0.40
2013,11,19,18,15,-0.40
2013,11,19,18,16,-0.40
2013,11,19,18,17,-0.40
2013,11,19,18,18,-0.50
2013,11,19,18,19,-0.50
2013,11,19,18,20,-0.50
2013,11,19,18,21,-0.50
2013,11,19,18,22,-0.60
2013,11,19,18,23,-0.60
2013,11,19,18,24,-0.60
2013,11,19,18,25,-0.60
2013,11,19,18,26,-0.70
2013,11,19,18,27,-0.70
2013,11,19,18,28,-0.70
2013,11,19,18,29,-0.70
2013,11,19,18,30,-0.80
2013,11,19,18,31,-0.80
2013,11,19,18,32,-0.80
2013,11,19,18,33,-0.80
2013,11,19,18,34,-0.80
2013,11,19,18,35,-0.80
2013,11,19,18,36,-0.80
2013,11,19,18,37,-0.80
2013,11,19,18,38,-0.80
2013,11,19,18,39,-0.80
2013,11,19,18,40,-0.80
2013,11,19,18,41,-0.80
2013,11,19,18,42,-0.80
2013,11,19,18,43,-0.80
2013,11,19,18,44,-0.80
2013,11,19,18,45,-0.80
2013,11,19,18,46,-0.80
2013,11,19,18,47,-0.80